This is the latest recevied weather packets stored in our database for station/object N4AR. If no packets are shown the sender has not sent any weather packets the latest 10 day(s).
| Time | Temp. | Humidity | Pressure | Rain* | Wind** | Luminosity | Snow |
|---|---|---|---|---|---|---|---|
| 1777799702 | 10° C | 60% | 1014.8 hPa | 0 mm | - | 0 W/m² | - |
| 1777799400 | 10° C | 59% | 1015.1 hPa | 0 mm | - | 0 W/m² | - |
| 1777799096 | 10° C | 60% | 1014.9 hPa | 0 mm | - | 0 W/m² | - |
| 1777798791 | 10° C | 61% | 1015.2 hPa | 0 mm | - | 0 W/m² | - |
| 1777798488 | 10° C | 64% | 1014.8 hPa | 0 mm | - | 0 W/m² | - |
| 1777798185 | 10.56° C | 64% | 1014.7 hPa | 0 mm | - | 0 W/m² | - |
| 1777797882 | 10.56° C | 63% | 1014.8 hPa | 0 mm | - | 0 W/m² | - |
| 1777797580 | 10.56° C | 63% | 1014.6 hPa | 0 mm | - | 0 W/m² | - |
| 1777797277 | 10.56° C | 62% | 1014.5 hPa | 0 mm | - | 0 W/m² | - |
| 1777796973 | 10.56° C | 62% | 1014.5 hPa | 0 mm | - | 0 W/m² | - |
| 1777796671 | 10.56° C | 63% | 1014.4 hPa | 0 mm | - | 0 W/m² | - |
| 1777796366 | 10.56° C | 62% | 1014.5 hPa | 0 mm | - | 0 W/m² | - |
| 1777796062 | 10.56° C | 64% | 1014.3 hPa | 0 mm | - | 0 W/m² | - |
| 1777795759 | 10.56° C | 65% | 1014.1 hPa | 0 mm | - | 0 W/m² | - |
| 1777795456 | 10.56° C | 68% | 1014.1 hPa | 0 mm | - | 0 W/m² | - |
| 1777795152 | 10.56° C | 69% | 1014.1 hPa | 0 mm | - | 0 W/m² | - |
| 1777794848 | 10.56° C | 69% | 1014.2 hPa | 0 mm | - | 0 W/m² | - |
| 1777794545 | 10.56° C | 67% | 1014.1 hPa | 0 mm | - | 0 W/m² | - |
| 1777794240 | 10.56° C | 67% | 1013.9 hPa | 0 mm | - | 0 W/m² | - |
| 1777793937 | 10.56° C | 69% | 1013.8 hPa | 0 mm | - | 0 W/m² | - |
| 1777793634 | 10° C | 72% | 1013.8 hPa | 0 mm | - | 0 W/m² | - |
| 1777793332 | 10° C | 72% | 1013.8 hPa | 0 mm | - | 0 W/m² | - |
| 1777793029 | 10° C | 73% | 1013.8 hPa | 0 mm | - | 0 W/m² | - |
| 1777792725 | 10° C | 73% | 1013.7 hPa | 0 mm | - | 0 W/m² | - |
| 1777792423 | 10° C | 73% | 1013.5 hPa | 0 mm | - | 0 W/m² | - |
* Rain latest hour (hover to see other rain measurements)
** Current wind speed in m/s (hover to see current wind gust speed)